Retour au catalogue

DELTA 1 DEB

ActifSSO
NORAD 12285·DEBRIS·🇺🇸 United States

Lancé Mar 5, 1978 depuis Vandenberg Space Force Base

Loading…

Prochains Passages (prochaines 24 heures)

TLE

FraisSource: Space-Track

Époque: Sep 14, 2026, 07:09 UTC

1 12285U 78026ED  26257.29859653  .00000396  00000-0  23528-3 0  9991
2 12285  99.0669 270.0889 0051683  84.1109 276.5950 14.12588347176268

Suivez DELTA 1 DEB en temps réel avec AllMySat

Download on the App Store